sat.trackr.live / text

‹ back to catalog

PEARL-1A

NORAD 68990 · 2026-100L

PAYLOAD ACTIVE UNKNOWN

§ Identity

Operator
Country
ROC
Launch date
2026-05-03
Launch site
AFWTR
Launch vehicle
Mass (kg)
RCS (m²)

External: N2YO · Heavens-Above · Gunter

§ Orbital elements

Epoch: 2026-05-24T16:12:45.014400Z

Period
96.59 min
Inclination
97.7335°
Eccentricity
0.0003892
Mean motion
14.90885672 rev/d
Perigee alt
592.5 km
Apogee alt
597.9 km
Semi-major
6,973.3 km
B*
1.2971e-4
RAAN
42.5354°
Arg perigee
232.6657°
Mean anomaly
127.4207°
Rev number
319

§ Raw data

PEARL-1A1 68990U 26100L   26144.67552100  .00001224  00000+0  12971-3 0  99952 68990  97.7335  42.5354 0003892 232.6657 127.4207 14.90885672  3190

JSON: /api/v1/satellites/68990 · /tle

For live sub-satellite position, see the globe view (requires WebGL).

§ Visibility from observer

Set your observer location to see the next 7 days of passes ≥ 10°. The values pass through the URL so the page stays shareable.

No JS? Fill the form by hand. The geolocation button needs JavaScript.